User: anonymous   Login
Location: Unspecified
(0.0000°N, 0.0000°E)
Time: 20:49:06
(UTC+02:00)
Language:

Cosmos 773 Rocket - Orbit

View from above orbital plane
View from above orbital plane
View from above satellite
View from above satellite

Ground track
Ground track

The orbit data is extracted from the following two-line orbital elements,

1 08344U 75094B   18174.89695541 -.00000052  00000-0 -82358-5 0  9992
2 08344  74.0543 160.6710 0022494 325.9275  34.0434 14.39120020239159
Epoch (UTC): 23 June 2018 21:31:36
Eccentricity: 0.0022494
inclination: 74.0543°
perigee height: 745 km
apogee height: 777 km
right ascension of ascending node: 160.6710°
argument of perigee: 325.9275°
revolutions per day: 14.39120020
mean anomaly at epoch: 34.0434°
orbit number at epoch: 23915

The dashed part of the orbit path shows where the satellite is in the earth's shadow,  

DLR